******** Week 362 almanac for PRN-1 ******** ID: 1 Health: 0 Eccentricity: 0.00162935257 Time of Applicability(s): 405504 Orbital Inclination(rad): 0.9581052254 Rate of Right Ascen(r/s): -7.886042771e-09 SQRT(A) (m 1/2): 5153.574707 Right Ascen at Week(rad): 2.884800676 Argument of Perigee(rad): 0.1111990014 Mean Anom(rad): 1.068000044 Af0(s): 0.0002487125244 Af1(s/s): -7.275958e-12 week: 362 ******** Week 362 almanac for PRN-2 ******** ID: 2 Health: 0 Eccentricity: 0.01686763763 Time of Applicability(s): 405504 Orbital Inclination(rad): 0.96325245 Rate of Right Ascen(r/s): -7.908900866e-09 SQRT(A) (m 1/2): 5153.537598 Right Ascen at Week(rad): 2.722403567 Argument of Perigee(rad): -0.8021509866 Mean Anom(rad): 2.550629927 Af0(s): 4.823515625e-05 Af1(s/s): 7.275958e-12 week: 362 ******** Week 362 almanac for PRN-3 ******** ID: 3 Health: 0 Eccentricity: 0.006561756134 Time of Applicability(s): 405504 Orbital Inclination(rad): 0.9936324601 Rate of Right Ascen(r/s): -7.508884204e-09 SQRT(A) (m 1/2): 5153.578125 Right Ascen at Week(rad): -2.411247399 Argument of Perigee(rad): 1.203164125 Mean Anom(rad): -1.039121058 Af0(s): 0.0004220576172 Af1(s/s): -1.455192e-11 week: 362 ******** Week 362 almanac for PRN-4 ******** ID: 4 Health: 0 Eccentricity: 0.003725528717 Time of Applicability(s): 405504 Orbital Inclination(rad): 0.9704250086 Rate of Right Ascen(r/s): -8.194627053e-09 SQRT(A) (m 1/2): 5153.663574 Right Ascen at Week(rad): -1.340824295 Argument of Perigee(rad): -2.87263444 Mean Anom(rad): 1.926291507 Af0(s): 3.919106445e-05 Af1(s/s): 3.637979e-12 week: 362 ******** Week 362 almanac for PRN-5 ******** ID: 5 Health: 0 Eccentricity: 0.005431652069 Time of Applicability(s): 405504 Orbital Inclination(rad): 0.9801921519 Rate of Right Ascen(r/s): -7.634603726e-09 SQRT(A) (m 1/2): 5153.671387 Right Ascen at Week(rad): -2.471194739 Argument of Perigee(rad): 1.417316606 Mean Anom(rad): 2.597556032 Af0(s): -0.0001823891846 Af1(s/s): 0 week: 362 ******** Week 362 almanac for PRN-6 ******** ID: 6 Health: 0 Eccentricity: 0.003838539124 Time of Applicability(s): 405504 Orbital Inclination(rad): 0.9869452626 Rate of Right Ascen(r/s): -7.657461821e-09 SQRT(A) (m 1/2): 5153.604004 Right Ascen at Week(rad): 2.835817403 Argument of Perigee(rad): -0.5534101595 Mean Anom(rad): 0.2661452923 Af0(s): -0.0004838589111 Af1(s/s): 0 week: 362 ******** Week 362 almanac for PRN-7 ******** ID: 7 Health: 0 Eccentricity: 0.02059555054 Time of Applicability(s): 405504 Orbital Inclination(rad): 0.9512742172 Rate of Right Ascen(r/s): -7.908900866e-09 SQRT(A) (m 1/2): 5153.569336 Right Ascen at Week(rad): -0.332067143 Argument of Perigee(rad): -1.986828695 Mean Anom(rad): -0.5870382691 Af0(s): -0.0001288783081 Af1(s/s): -3.637979e-12 week: 362 ******** Week 362 almanac for PRN-8 ******** ID: 8 Health: 0 Eccentricity: 0.01158571243 Time of Applicability(s): 405504 Orbital Inclination(rad): 0.9429691493 Rate of Right Ascen(r/s): -8.57178562e-09 SQRT(A) (m 1/2): 5153.629883 Right Ascen at Week(rad): 1.714660206 Argument of Perigee(rad): 0.5305442583 Mean Anom(rad): 2.232343893 Af0(s): 0.0003760834839 Af1(s/s): -7.275958e-12 week: 362 ******** Week 362 almanac for PRN-9 ******** ID: 9 Health: 0 Eccentricity: 0.00334072113 Time of Applicability(s): 405504 Orbital Inclination(rad): 0.9646006753 Rate of Right Ascen(r/s): -8.263201338e-09 SQRT(A) (m 1/2): 5153.70459 Right Ascen at Week(rad): -1.405213288 Argument of Perigee(rad): 2.062632288 Mean Anom(rad): 2.827158801 Af0(s): 0.0006052004761 Af1(s/s): -3.637979e-12 week: 362 ******** Week 362 almanac for PRN-10 ******** ID: 10 Health: 0 Eccentricity: 0.01092338562 Time of Applicability(s): 405504 Orbital Inclination(rad): 0.9931650753 Rate of Right Ascen(r/s): -7.486026109e-09 SQRT(A) (m 1/2): 5153.609863 Right Ascen at Week(rad): -2.413757719 Argument of Perigee(rad): -2.256062921 Mean Anom(rad): -2.031504388 Af0(s): -0.0004665244019 Af1(s/s): 0 week: 362 ******** Week 362 almanac for PRN-11 ******** ID: 11 Health: 0 Eccentricity: 0.0022149086 Time of Applicability(s): 405504 Orbital Inclination(rad): 0.9638217006 Rate of Right Ascen(r/s): -7.874613723e-09 SQRT(A) (m 1/2): 5153.536133 Right Ascen at Week(rad): 2.854231914 Argument of Perigee(rad): -2.308633971 Mean Anom(rad): 1.377840569 Af0(s): -0.0003180505615 Af1(s/s): 1.455192e-11 week: 362 ******** Week 362 almanac for PRN-12 ******** ID: 12 Health: 0 Eccentricity: 0.008988380432 Time of Applicability(s): 405504 Orbital Inclination(rad): 0.9592856715 Rate of Right Ascen(r/s): -7.897471818e-09 SQRT(A) (m 1/2): 5153.719238 Right Ascen at Week(rad): 0.7854019088 Argument of Perigee(rad): 1.566313104 Mean Anom(rad): -1.264590018 Af0(s): -0.0004800905395 Af1(s/s): 0 week: 362 ******** Week 362 almanac for PRN-13 ******** ID: 13 Health: 0 Eccentricity: 0.01003789902 Time of Applicability(s): 405504 Orbital Inclination(rad): 0.97604561 Rate of Right Ascen(r/s): -8.148910863e-09 SQRT(A) (m 1/2): 5153.61084 Right Ascen at Week(rad): -1.229812547 Argument of Perigee(rad): 0.9950292219 Mean Anom(rad): 1.993979907 Af0(s): 0.0005396308105 Af1(s/s): 0 week: 362 ******** Week 362 almanac for PRN-14 ******** ID: 14 Health: 0 Eccentricity: 0.006814479828 Time of Applicability(s): 405504 Orbital Inclination(rad): 0.9426635516 Rate of Right Ascen(r/s): -8.000333246e-09 SQRT(A) (m 1/2): 5153.607422 Right Ascen at Week(rad): 0.7304984294 Argument of Perigee(rad): -2.7434033 Mean Anom(rad): -1.409135875 Af0(s): 0.0005848512695 Af1(s/s): 0 week: 362 ******** Week 362 almanac for PRN-15 ******** ID: 15 Health: 0 Eccentricity: 0.01662635803 Time of Applicability(s): 405504 Orbital Inclination(rad): 0.942525733 Rate of Right Ascen(r/s): -8.480353241e-09 SQRT(A) (m 1/2): 5153.635254 Right Ascen at Week(rad): -1.549731431 Argument of Perigee(rad): 1.504734037 Mean Anom(rad): 1.237564468 Af0(s): 0.0003127748413 Af1(s/s): 3.637979e-12 week: 362 ******** Week 362 almanac for PRN-16 ******** ID: 16 Health: 0 Eccentricity: 0.01502609253 Time of Applicability(s): 405504 Orbital Inclination(rad): 0.9583928468 Rate of Right Ascen(r/s): -7.931758961e-09 SQRT(A) (m 1/2): 5153.610352 Right Ascen at Week(rad): 0.8023476028 Argument of Perigee(rad): 0.9317165617 Mean Anom(rad): -3.015725337 Af0(s): 0.0001808818359 Af1(s/s): 7.275958e-12 week: 362 ******** Week 362 almanac for PRN-17 ******** ID: 17 Health: 0 Eccentricity: 0.01262712479 Time of Applicability(s): 405504 Orbital Inclination(rad): 0.9586385234 Rate of Right Ascen(r/s): -8.423208003e-09 SQRT(A) (m 1/2): 5153.540039 Right Ascen at Week(rad): 1.819680216 Argument of Perigee(rad): -1.119376042 Mean Anom(rad): 2.176657694 Af0(s): -7.235273437e-05 Af1(s/s): -1.091394e-11 week: 362 ******** Week 362 almanac for PRN-18 ******** ID: 18 Health: 0 Eccentricity: 0.005787849426 Time of Applicability(s): 405504 Orbital Inclination(rad): 0.9718990682 Rate of Right Ascen(r/s): -7.794610391e-09 SQRT(A) (m 1/2): 5153.59082 Right Ascen at Week(rad): 2.830545468 Argument of Perigee(rad): -2.866096297 Mean Anom(rad): 0.1895784539 Af0(s): -0.0003142821899 Af1(s/s): 1.091394e-11 week: 362 ******** Week 362 almanac for PRN-19 ******** ID: 19 Health: 0 Eccentricity: 0.01120376587 Time of Applicability(s): 405504 Orbital Inclination(rad): 0.9578116118 Rate of Right Ascen(r/s): -8.411778956e-09 SQRT(A) (m 1/2): 5153.662598 Right Ascen at Week(rad): 1.863580305 Argument of Perigee(rad): 2.938194143 Mean Anom(rad): -2.310214016 Af0(s): 0.0005486749023 Af1(s/s): 0 week: 362 ******** Week 362 almanac for PRN-20 ******** ID: 20 Health: 0 Eccentricity: 0.002257823944 Time of Applicability(s): 405504 Orbital Inclination(rad): 0.960004725 Rate of Right Ascen(r/s): -8.308917528e-09 SQRT(A) (m 1/2): 5153.692383 Right Ascen at Week(rad): -1.399679947 Argument of Perigee(rad): -1.978143877 Mean Anom(rad): -1.297896801 Af0(s): 4.823515625e-05 Af1(s/s): 2.182787e-11 week: 362 ******** Week 362 almanac for PRN-21 ******** ID: 21 Health: 0 Eccentricity: 0.0007820129394 Time of Applicability(s): 405504 Orbital Inclination(rad): 0.9630307418 Rate of Right Ascen(r/s): -7.840326581e-09 SQRT(A) (m 1/2): 5153.726074 Right Ascen at Week(rad): -2.405511449 Argument of Perigee(rad): -0.2740837178 Mean Anom(rad): -1.60486261 Af0(s): 0.0003240799561 Af1(s/s): 3.637979e-12 week: 362 ******** Week 362 almanac for PRN-22 ******** ID: 22 Health: 0 Eccentricity: 0.01205635071 Time of Applicability(s): 405504 Orbital Inclination(rad): 0.9578415724 Rate of Right Ascen(r/s): -7.908900866e-09 SQRT(A) (m 1/2): 5153.578613 Right Ascen at Week(rad): 0.8057013133 Argument of Perigee(rad): -0.9936858652 Mean Anom(rad): 2.82380921 Af0(s): -2.487125244e-05 Af1(s/s): 7.275958e-12 week: 362 ******** Week 362 almanac for PRN-23 ******** ID: 23 Health: 0 Eccentricity: 0.006053924561 Time of Applicability(s): 405504 Orbital Inclination(rad): 0.9881676535 Rate of Right Ascen(r/s): -7.520313251e-09 SQRT(A) (m 1/2): 5153.665527 Right Ascen at Week(rad): -2.44591514 Argument of Perigee(rad): -2.740075056 Mean Anom(rad): -0.9530975425 Af0(s): 0.0004944103516 Af1(s/s): 3.637979e-12 week: 362 ******** Week 362 almanac for PRN-24 ******** ID: 24 Health: 0 Eccentricity: 0.01793479919 Time of Applicability(s): 405504 Orbital Inclination(rad): 0.9352153558 Rate of Right Ascen(r/s): -8.160339911e-09 SQRT(A) (m 1/2): 5153.592285 Right Ascen at Week(rad): -0.4408393388 Argument of Perigee(rad): 1.137719021 Mean Anom(rad): 0.3947764723 Af0(s): -5.9540271e-05 Af1(s/s): 1.818989e-11 week: 362 ******** Week 362 almanac for PRN-25 ******** ID: 25 Health: 0 Eccentricity: 0.0129160881 Time of Applicability(s): 405504 Orbital Inclination(rad): 0.9477149024 Rate of Right Ascen(r/s): -7.954617056e-09 SQRT(A) (m 1/2): 5153.671875 Right Ascen at Week(rad): 0.6913980231 Argument of Perigee(rad): 1.159489489 Mean Anom(rad): -1.389381378 Af0(s): 0.0003444291626 Af1(s/s): -3.637979e-12 week: 362 ******** Week 362 almanac for PRN-26 ******** ID: 26 Health: 0 Eccentricity: 0.01100683212 Time of Applicability(s): 405504 Orbital Inclination(rad): 0.9285281583 Rate of Right Ascen(r/s): -8.091765626e-09 SQRT(A) (m 1/2): 5153.677246 Right Ascen at Week(rad): 0.6165636542 Argument of Perigee(rad): 0.7115483738 Mean Anom(rad): -2.209701198 Af0(s): -0.0002705690796 Af1(s/s): -3.637979e-12 week: 362 ******** Week 362 almanac for PRN-27 ******** ID: 27 Health: 0 Eccentricity: 0.01437807083 Time of Applicability(s): 405504 Orbital Inclination(rad): 0.952065176 Rate of Right Ascen(r/s): -8.468924193e-09 SQRT(A) (m 1/2): 5153.605469 Right Ascen at Week(rad): 1.746853954 Argument of Perigee(rad): 0.8871932936 Mean Anom(rad): 2.336345993 Af0(s): -5.878659668e-05 Af1(s/s): -1.455192e-11 week: 362 ******** Week 362 almanac for PRN-28 ******** ID: 28 Health: 0 Eccentricity: 0.0004334449768 Time of Applicability(s): 405504 Orbital Inclination(rad): 0.962191846 Rate of Right Ascen(r/s): -7.863184676e-09 SQRT(A) (m 1/2): 5153.757324 Right Ascen at Week(rad): -0.357617136 Argument of Perigee(rad): -0.1026475079 Mean Anom(rad): -0.1687337672 Af0(s): -0.0004544656128 Af1(s/s): 7.275958e-12 week: 362 ******** Week 362 almanac for PRN-29 ******** ID: 29 Health: 0 Eccentricity: 0.003424167633 Time of Applicability(s): 405504 Orbital Inclination(rad): 0.9612930292 Rate of Right Ascen(r/s): -8.377491813e-09 SQRT(A) (m 1/2): 5153.689941 Right Ascen at Week(rad): 1.836461127 Argument of Perigee(rad): 2.743745974 Mean Anom(rad): 2.193456207 Af0(s): -0.00028112052 Af1(s/s): 7.275958e-12 week: 362 ******** Week 362 almanac for PRN-30 ******** ID: 30 Health: 0 Eccentricity: 0.008127689362 Time of Applicability(s): 405504 Orbital Inclination(rad): 0.9365336205 Rate of Right Ascen(r/s): -8.091765626e-09 SQRT(A) (m 1/2): 5153.697754 Right Ascen at Week(rad): -0.3413062314 Argument of Perigee(rad): -2.307698453 Mean Anom(rad): -0.7771518935 Af0(s): 0.0001251099365 Af1(s/s): 1.455192e-11 week: 362 ******** Week 362 almanac for PRN-31 ******** ID: 31 Health: 0 Eccentricity: 0.01083993912 Time of Applicability(s): 405504 Orbital Inclination(rad): 0.955049248 Rate of Right Ascen(r/s): -7.897471818e-09 SQRT(A) (m 1/2): 5153.528809 Right Ascen at Week(rad): -0.3077818602 Argument of Perigee(rad): 0.9386820179 Mean Anom(rad): -1.677047716 Af0(s): -0.0001266172852 Af1(s/s): 3.637979e-12 week: 362 ******** Week 362 almanac for PRN-32 ******** ID: 32 Health: 0 Eccentricity: 0.009375095367 Time of Applicability(s): 405504 Orbital Inclination(rad): 0.9676386763 Rate of Right Ascen(r/s): -8.217485148e-09 SQRT(A) (m 1/2): 5153.67627 Right Ascen at Week(rad): -1.388146628 Argument of Perigee(rad): -1.990792852 Mean Anom(rad): 2.902343708 Af0(s): -3.240799561e-05 Af1(s/s): 1.818989e-11 week: 362